Regional Weather Roundup
Issued by NWS Charleston, SC

Current Version | Previous Version | Graphics & Text | Print | Product List | Glossary Off
Versions: 1 2 3 4 5 6 7 8 9 10 11 12 13 14 15 16 17 18 19 20 21 22 23 24 25 26 27 28 29 30 31 32 33 34 35 36 37 38 39 40 41 42 43 44 45 46 47 48 49 50

000
ASUS42 KCHS 301426
RWRCHS

REGIONAL WEATHER ROUNDUP
NATIONAL WEATHER SERVICE CHARLESTON SC
900 AM EST FRI JAN 30 2015

NOTE: "FAIR" INDICATES FEW OR NO CLOUDS BELOW 12,000 FEET WITH NO
SIGNIFICANT WEATHER AND/OR OBSTRUCTIONS TO VISIBILITY.

NOT ALL STATIONS ARE QUALITY CONTROLLED BY THE NATIONAL
WEATHER SERVICE. USE DATA WITH CAUTION...ESPECIALLY
DEWPOINT OBSERVATIONS.

SCZ027-030-031-034>040-042>050-301500-
...SOUTHEAST SOUTH CAROLINA...

CITY           SKY/WX    TMP DP  RH WIND       PRES   REMARKS
N CHARLESTON   MOSUNNY   54  40  59 NW15G25   30.09R
WATERFRONT PRK   N/A     54 N/A N/A NW10G21     N/A
MOUNT PLEASANT FAIR      55  41  58 NW12G23   30.08R
PINOPOLIS        N/A     54  43  66 NW15      30.01R
MONCKS CORNER  FAIR      54  36  50 N10G21    30.11R
SUMMERVILLE    NOT AVBL
BEAUFORT MCAS  PTSUNNY   54  41  61 NW23G30   30.13R
BEAUFORT ARPT  FAIR      54  45  71 NW17G30   30.12R
HILTON HEAD IS MOSUNNY   55  45  67 NW17G25   30.13R
WALTERBORO     SUNNY     54  34  47 NW13G20   30.13R
ALLENDALE      FAIR      50  36  57 NW12G20   30.16R

...SOUTHERN MIDLANDS AND PEE DEE...

CITY           SKY/WX    TMP DP  RH WIND       PRES   REMARKS
GEORGETOWN     NOT AVBL
KINGSTREE      NOT AVBL
ORANGEBURG     SUNNY     49  31  49 NW12G17   30.13R
BARNWELL       FAIR      48  36  61 NW10G20   30.17R
AIKEN          FAIR      45  34  65 NW9       30.19R
MANNING        FAIR      52  27  37 NW14G21   30.12R
COLUMBIA       MOSUNNY   47  28  47 NW10G18   30.15R
SUMTER         SUNNY     47  31  53 N15G21    30.11R
FLORENCE       SUNNY     48  31  51 N21G31    30.10R
MYRTLE BEACH   SUNNY     52  37  58 NW14G20   30.06R
N MYRTLE BEACH SUNNY     50  36  58 N9G21     30.04R

$$

GAZ063-065-086>088-099>101-113>116-118-119-134>141-150-301500-
...SOUTHEAST GEORGIA...

CITY           SKY/WX    TMP DP  RH WIND       PRES   REMARKS
SAVANNAH ARPT  PTSUNNY   53  42  66 NW15G22   30.14R
HUNTER AAF     SUNNY     55  45  68 NW24G33   30.11R
FORT STEWART   MOSUNNY   54  43  67 NW15G29   30.14R
STATESBORO     MOSUNNY   49  37  64 NW15G22   30.18R
SYLVANIA       SUNNY     49  41  71 NW13      30.18R
CLAXTON        FAIR      48  37  66 NW14G24   30.19R

...CSRA...CENTRAL AND FAR SOUTHEAST GEORGIA...

CITY           SKY/WX    TMP DP  RH WIND       PRES   REMARKS
THOMSON        SUNNY     46  33  61 W14       30.24R
AUGUSTA-BUSH   SUNNY     47  31  53 NW13G21   30.18R
AUGUSTA-DANIEL SUNNY     46  31  55 NW14G22   30.17R
SWAINSBORO     FAIR      46  27  46 NW15      30.21R
VIDALIA        MOSUNNY   46  36  66 NW13G21   30.20R
EASTMAN        FAIR      46  34  62 N8G21     30.27R
HAZLEHURST     FAIR      50  38  61 N12       30.20R
ALMA           MOSUNNY   53  40  61 NW21G28   30.19R
WAYCROSS       PTSUNNY   57  51  79 N18       30.18R
JESUP          FAIR      57  46  67 NW17G28   30.17R
BAXLEY         FAIR      54  41  62 NW13G20   30.19R
BRUNSWICK      MOSUNNY   55  50  82 W9G16     30.16R
SAINT SIMONS   MOSUNNY   54  50  86 W6        30.14R

$$

SCZ027-028-034-036>038-045-046-048>050-GAZ119-141-301500-
...LAKE AND SUPPLEMENTAL COASTAL OBSERVATIONS...

STATION/POSITION TIME  TEMP    WIND        PRES    WAVE   SWELL
                       AIR SEA DIR/SP/G            HT/PER HT/PER/DIR
                 (UTC) (F)     (DEG/KT/KT) (MB)    (FT/S) (FT/S/D)
UPR LAKE MARION  NOT AVBL
WINYAH BAY       NOT AVBL
LAKE MURRAY      1400   45     320/  4/ 17 1020.7R
ACE BASIN NERRS  NOT AVBL
FORT PULASKI     1400   54 52  300/ 17/ 20 1020.5R
SAPELO ISLAND    NOT AVBL

$$

ANZ835-935-AMZ111-154-330-350-352-354-370-450-454-472-301500-
...C-MAN AND BUOY OBSERVATIONS...

STATION/POSITION TIME  TEMP    WIND        PRES    WAVE   SWELL
                       AIR SEA DIR/SP/G            HT/PER HT/PER/DIR
                 (UTC) (F)     (DEG/KT/KT) (MB)    (FT/S) (FT/S/D)
BUOY 41004       1350   58 68  290/ 23/ 29 1016.7R   6/ 6   2/ 9
BUOY 41008       1350   54 53  280/ 16/ 17 1019.7R   3/ 5   2/270/10
FOLLY BEACH CMAN 1400   54     310/ 10/ 16 1019.0R
CAPERS NEARSHORE 1300   52     290/ 10/ 12   N/A
FRIPP NEARSHORE  1300   54     300/ 16/ 19 1017.8R


STATION/POSITION TIME  TEMP    WIND        PRES    WAVE   SWELL
                       AIR SEA DIR/SP/G            HT/PER HT/PER/DIR
                 (UTC) (F)     (DEG/KT/KT) (MB)    (FT/S) (FT/S/D)
5E ST. MARYS GA  1321      56                N/A     3/11   2/ 90/11
FRYING PAN BUOY  1350   54 64  290/ 21/ 25 1016.2R   6/ 6   2/310/11
BUOY 41025       1350   51 69  310/ 21/ 27 1013.1R   6/ 7   2/ 50/11
CAPE LOOKOUT NC  1400   48     330/ 15/ 18 1014.8R
BUOY 41002       1350   68 72  230/ 25/ 31 1015.8F   6/ 5   2/ 60/11
BUOY 41010       1320   69 74  270/ 16/ 19 1021.1R
ST AUGUSTINE FL  1400   54     250/  6/  8 1021.8R


$$


USA.gov is the U.S. government's official web portal to all federal, state and local government web resources and services.